La Junta, CO

7:29 PM MST on February 25, 2017 (GMT -0700)
La Junta Municipal

Weather History for KLHX - May, 2014

Change the Weather History Date:

Thursday, May 15, 2014

  Actual Average Record
Temperature  
Mean Temperature 57 °F 63 °F  
Max Temperature 69 °F 78 °F 96 °F (1974)
Min Temperature 44 °F 48 °F 34 °F (1945)
Degree Days  
Heating Degree Days 8 4  
Month to date heating degree days 119 89  
Since 1 July heating degree days 5181 5212  
Cooling Degree Days 0 2  
Month to date cooling degree days 20 17  
Year to date cooling degree days 34 26  
Growing Degree Days 6 (Base 50)    
Moisture  
Dew Point 33 °F    
Average Humidity 46    
Maximum Humidity 70    
Minimum Humidity 22    
Precipitation  
Precipitation 0.00 in 0.05 in 1.26 in (1951)
Month to date precipitation 0.30  
Year to date precipitation 2.20  
Sea Level Pressure  
Sea Level Pressure 30.15 in    
Wind  
Wind Speed 8 mph (NNW)    
Max Wind Speed 18 mph    
Max Gust Speed 23 mph    
Visibility 10 miles    
Events      
T = Trace of Precipitation, MM = Missing Value Source: NWS Daily Summary

Daily Weather History Graph

Daily Weather History Graph

Search for Another Location

Airport or City:

Trip Planner

Search our weather history database for the weather conditions in past years. The results will help you decide how hot, cold, wet, or windy it might be!

Date:

Astronomy

May. 15, 2014 Rise Set
Actual Time 5:43 AM MDT 7:57 PM MDT
Civil Twilight 5:13 AM MDT 8:27 PM MDT
Nautical Twilight 4:37 AM MDT 9:03 PM MDT
Astronomical Twilight 3:58 AM MDT 9:43 PM MDT
Moon 9:08 PM MDT (5/15) 6:32 AM MDT (5/15)
Length of Visible Light 15h 13m
Length of Day
14h 14m
Full, 99% of the Moon is Illuminated
May 15
Full
May 21
Last Quarter
May 28
New
Jun 5
First Quarter
Jun 12
Full

Hourly Weather History & Observations

Time (MDT) Temp. Windchill Dew Point Humidity Pressure Visibility Wind Dir Wind Speed Gust Speed Precip Events Conditions
12:53 AM 48.0 °F - 35.1 °F 61% 30.24 in 10.0 mi Calm Calm - N/A   Overcast
1:53 AM 46.0 °F 43.1 °F 35.1 °F 66% 30.25 in 10.0 mi NNW 5.8 mph - N/A   Mostly Cloudy
2:53 AM 46.9 °F - 33.1 °F 59% 30.21 in 10.0 mi West 5.8 mph - N/A   Overcast
3:53 AM 46.0 °F 41.9 °F 35.1 °F 66% 30.21 in 10.0 mi WSW 8.1 mph - N/A   Overcast
4:53 AM 46.0 °F 41.9 °F 35.1 °F 66% 30.20 in 10.0 mi West 8.1 mph - N/A   Overcast
5:53 AM 45.0 °F 39.3 °F 35.1 °F 68% 30.21 in 10.0 mi WSW 11.5 mph - N/A   Mostly Cloudy
6:53 AM 45.0 °F 38.9 °F 36.0 °F 71% 30.21 in 10.0 mi West 12.7 mph - N/A   Clear
7:53 AM 48.0 °F - 35.1 °F 61% 30.21 in 10.0 mi West 12.7 mph - N/A   Mostly Cloudy
8:53 AM 54.0 °F - 35.1 °F 49% 30.20 in 10.0 mi West 10.4 mph - N/A   Mostly Cloudy
9:53 AM 57.9 °F - 33.1 °F 39% 30.19 in 10.0 mi NW 9.2 mph - N/A   Mostly Cloudy
10:53 AM 60.1 °F - 30.9 °F 33% 30.17 in 10.0 mi WNW 8.1 mph - N/A   Clear
11:53 AM 64.0 °F - 30.9 °F 29% 30.16 in 10.0 mi North 8.1 mph - N/A   Unknown
1:53 PM 66.9 °F - 28.9 °F 24% 30.11 in 10.0 mi NNE 8.1 mph - N/A   Partly Cloudy
2:53 PM 68.0 °F - 28.9 °F 23% 30.09 in 10.0 mi NE 9.2 mph - N/A   Partly Cloudy
3:53 PM 64.9 °F - 30.0 °F 27% 30.09 in 10.0 mi NE 10.4 mph - N/A   Scattered Clouds
4:53 PM 68.0 °F - 30.9 °F 25% 30.08 in 10.0 mi NNE 10.4 mph - N/A   Clear
5:53 PM 66.9 °F - 30.9 °F 26% 30.08 in 10.0 mi North 11.5 mph - N/A   Clear
6:53 PM 66.0 °F - 30.9 °F 27% 30.07 in 10.0 mi ENE 4.6 mph - N/A   Clear
7:53 PM 61.0 °F - 33.1 °F 35% 30.09 in 10.0 mi NE 9.2 mph - N/A   Mostly Cloudy
8:53 PM 57.9 °F - 34.0 °F 41% 30.10 in 10.0 mi NE 5.8 mph - N/A   Partly Cloudy
9:53 PM 55.9 °F - 34.0 °F 44% 30.09 in 10.0 mi East 5.8 mph - N/A   Partly Cloudy
10:53 PM 54.0 °F - 32.0 °F 43% 30.10 in 10.0 mi SE 6.9 mph - N/A   Clear
11:53 PM 54.0 °F - 30.9 °F 41% 30.08 in 10.0 mi SSE 6.9 mph - N/A   Clear